#timestamp,LO_Frequency,Hit,StdDev 
1668164415.2,286047003.5,N
1668164435.9,286047005.8,N
1668164455.7,286047003.9,N
1668164475.6,286047002.7,N
1668164495.4,286047000.0,N
1668164515.2,286047001.6,N
1668164535.1,286047002.5,N
1668164536.0,286047002.5,N
1668164555.8,286047001.5,N
1668164575.7,286047001.6,N
1668164595.5,286047002.8,N
1668164615.3,286046998.2,N
1668164635.2,286046999.6,N
1668164655.0,286046996.6,N
1668164655.9,286046996.6,N
1668164675.8,286046996.6,N
1668164695.6,286046996.9,N
1668164715.4,286046999.4,N
1668164735.3,286046998.6,N
1668164755.1,286046998.1,N
1668164756.0,286046998.1,N
1668164775.8,286047001.1,N
1668164795.7,286046998.5,N
1668164815.5,286046999.0,N
1668164835.4,286046997.1,N
1668164855.2,286046996.5,N
1668164875.0,286046997.5,N
1668164875.9,286046997.5,N
1668164895.8,286046995.2,N
1668164915.6,286046997.8,N
1668164935.4,286046996.0,N
1668164955.3,286046997.1,N
1668164975.1,286046998.9,N
1668164995.9,286046998.3,N
1668165015.7,286047002.4,N
1668165035.5,286047000.3,N
1668165055.4,286047002.3,N
1668165075.2,286047001.7,N
1668165095.0,286047004.2,N
1668165095.9,286047004.2,N
1668165115.8,286047003.6,N
1668165135.6,286047003.2,N
1668165155.5,286047003.8,N
1668165175.3,286047004.0,N
1668165195.1,286047004.3,N
1668165215.9,286047003.4,N
1668165235.7,286047003.5,N
1668165255.5,286047005.9,N
1668165275.4,286047002.9,N
1668165295.2,286047003.4,N
1668165315.1,286047003.8,N
1668165316.0,286047003.8,N
1668165335.8,286047004.1,N
1668165355.6,286047004.4,N
1668165375.5,286047001.5,N
1668165395.3,286047004.1,N
1668165415.1,286047003.5,N
1668165435.9,286047001.8,N
1668165455.7,286047004.3,N
1668165475.6,286047001.8,N
1668165495.4,286046999.8,N
1668165515.2,286047002.2,N
1668165535.1,286047002.3,N
1668165536.0,286047002.3,N
1668165555.8,286047002.7,N
1668165575.6,286047001.9,N
1668165595.5,286046999.7,N
1668165615.3,286047000.8,N
1668165635.2,286047000.7,N
1668165655.9,286046998.3,N
1668165675.7,286046998.5,N
1668165695.6,286047000.5,N
1668165715.4,286047000.0,N
1668165735.2,286047000.5,N
1668165755.1,286047000.7,N
1668165756.0,286047000.7,N
1668165775.8,286046998.3,N
1668165795.7,286047000.7,N
1668165815.5,286046998.7,N
1668165835.3,286046998.5,N
1668165855.2,286046998.7,N
1668165875.0,286046996.5,N
1668165875.9,286046996.5,N
1668165895.7,286046996.9,N
1668165915.6,286046996.9,N
1668165935.4,286046995.1,N
1668165955.3,286046996.8,N
1668165975.1,286046997.5,N
1668165976.0,286046997.5,N
1668165995.8,286046997.9,N
1668166015.7,286046997.8,N
1668166035.5,286046995.0,N
1668166055.4,286046995.0,N
1668166075.2,286046995.3,N
1668166095.0,286046996.3,N
1668166095.9,286046996.3,N
1668166115.8,286046996.2,N
1668166135.6,286046996.2,N
1668166155.4,286046995.1,N
1668166175.3,286046995.9,N
1668166195.1,286046993.8,Y
1668166215.9,286046997.3,P
1668166235.7,286046998.4,P
1668166255.5,286046997.0,P
1668166275.4,286046996.6,Y
1668166295.2,286046998.7,P
1668166315.0,286046998.9,N
1668166315.9,286046998.9,N
1668166335.8,286046998.4,N
1668166355.6,286046998.8,N
1668166375.5,286046997.6,Y
1668166395.3,286047000.8,P
1668166415.1,286047000.9,N
1668166435.9,286046998.5,N
1668166455.7,286047000.7,N
1668166475.6,286046998.4,N
1668166495.4,286046998.3,N
1668166515.2,286046998.7,N
1668166535.1,286046998.7,N
1668166536.0,286046998.7,N
1668166555.8,286046999.2,N
1668166575.6,286046998.4,N
1668166595.5,286046999.4,N
1668166615.3,286046999.3,N
1668166635.2,286046998.8,N
1668166655.9,286046999.4,N
1668166675.7,286046998.9,N
1668166695.6,286046998.1,N
1668166715.4,286046998.3,N
1668166735.2,286046998.5,N
1668166755.1,286046999.4,N
1668166756.0,286046999.4,N
1668166775.8,286046999.2,N
1668166795.7,286046996.7,Y
1668166815.5,286046996.6,P
1668166835.3,286046996.5,N
1668166855.2,286046996.6,N
1668166875.0,286046996.7,Y
1668166875.9,286046996.7,P
1668166895.7,286046998.1,P
1668166915.6,286046998.5,N
1668166935.4,286047000.7,N
1668166955.3,286047000.3,N
1668166975.1,286047000.7,N
1668166976.0,286047000.7,N
1668166995.8,286046998.2,N
1668167015.7,286046998.2,N
1668167035.5,286046998.9,N
1668167055.4,286046999.1,N
1668167075.2,286046998.3,N
1668167095.0,286046998.6,N
1668167095.9,286046998.6,N
1668167115.8,286046998.7,N
1668167135.6,286046999.0,N
1668167155.4,286046998.3,N
1668167175.3,286046999.2,N
1668167195.1,286046997.0,N
1668167215.9,286046998.7,N
1668167235.7,286046999.5,N
1668167255.5,286046998.8,N
1668167275.4,286046998.7,N
1668167295.2,286046999.2,N
1668167315.0,286046998.8,N
1668167315.9,286046998.8,N
1668167335.8,286046996.7,Y
1668167355.6,286046999.1,P
1668167375.5,286046998.4,P
1668167395.3,286047000.8,N
1668167415.1,286047001.2,N
1668167435.9,286046998.9,N
1668167455.7,286046998.2,N
1668167475.6,286046998.5,N
1668167495.4,286047000.5,N
1668167515.2,286047000.2,N
1668167535.1,286047000.7,N
1668167536.0,286047000.7,N
1668167555.8,286047001.1,N
1668167575.6,286046998.8,N
1668167595.5,286046998.9,N
1668167615.3,286046998.6,N
1668167635.2,286046998.8,N
1668167655.9,286046999.0,N
1668167675.7,286046998.9,N
1668167695.6,286046999.4,N
1668167715.4,286046998.3,N
1668167735.2,286046999.1,N
1668167755.1,286046999.5,N
1668167756.0,286046999.5,N
1668167775.8,286046999.6,N
1668167795.7,286046999.3,N
1668167815.5,286046999.3,N
1668167835.3,286046996.5,Y
1668167855.2,286046996.8,P
1668167875.0,286046998.7,N
1668167875.9,286046998.7,N
1668167895.8,286046998.8,N
1668167915.6,286046998.5,N
1668167935.4,286046998.4,N
1668167955.3,286046998.4,N
1668167975.1,286047000.4,N
1668167995.8,286047000.3,N
